Location: Newark
(41.9000°N, 12.4833°E)
Time: 23:34:08
(UTC+00:00)

NOAA 18 - Pass Details

Date: 26 May 2019
Orbit: 840 x 861 km, 99.1° (Epoch: 20 June)

Event Time Altitude Azimuth Distance (km) Brightness Sun altitude
Exits shadow 19:53:10 - 187° (S) 3,443 8.0 -12.6°
Rises 19:53:14 0° 188° (S) 3,418 8.0 -12.6°
Reaches altitude 10° 19:55:47 10° 196° (SSW) 2,488 7.4 -13.0°
Maximum altitude 20:00:50 36° 262° (W) 1,330 6.6 -13.6°
Drops below altitude 10° 20:05:57 10° 329° (NNW) 2,508 9.0 -14.3°
Sets 20:08:32 0° 338° (NNW) 3,449 9.8 -14.6°
